SKYSAT-C6

Last updated on Mon Sep 21 2026 00:02:46 GMT+0000 (Coordinated Universal Time)

1 42992U 17068F 26263.24501790 .00006165 00000+0 18895-3 0 9996 2 42992 97.4701 41.8614 0002050 134.3909 225.7502 15.34156290496891
UTC large
Height (km)
Speed (km/s)
/
Latitude / Longitude
Inclination (degrees)
Orbital Period (minutes)
Azimuth
Elevation
Range (km)
Doppler Factor

Next 0 passes for location: London (51.5072 / 0.1276)

No passes found over London.
SKYSAT-C6